Location: Lourdes
(43.1000°N, 0.0500°W)
Time: 09:27:19
(UTC+00:00)

USA 267 - Pass Details

Date: 30 November 2020
Orbit: 1100 x 1107 km, 123.0° (Epoch: 18 January)

Event Time Altitude Azimuth Distance (km) Brightness Sun altitude
Exits shadow 18:18:23 32° 67° (ENE) 1,801 3.8 -19.9°
Maximum altitude 18:20:39 42° 25° (NNE) 1,528 3.7 -20.3°
Drops below altitude 10° 18:26:42 10° 318° (NW) 2,968 5.9 -21.4°
Sets 18:29:19 0° 311° (NW) 3,928 6.7 -21.8°
